^^
Station Historical Data
Daily Summary for January 26, 2018 Units:  English    Metric   Both
« Previous Day
Next Day »
Daily Weekly Monthly Yearly Custom
  High: Low: Average:
Temperature: TemperatureF °F 64.2 °F 77.5 °F
Dew Point: DewpointF °F 36.3 °F 42.3 °F
Humidity: Humidity% 17% 30%
Wind Speed: WindSpeedMPHmph 0.0mph 1.3mph
Wind Gust: WindSpeedGustMPHmph - -
Wind- - SSW
Pressure: PressureIn in 29.56 in -
Precipitation: 0.00 in    
Historical Graphs
 
 
Tabular Data for January 26, 2018
Time Temperature Dew Point Pressure Wind Wind Speed Wind Gust Humidity Rainfall Rate (Hourly) solar Conditions
TemperatureF °F DewpointF °F PressureIn in Calm     Humidity% HourlyPrecipIn in SolarRadiationWatts/m^2 W/m2 Conditions
00:00 72.5 °F 40.1 °F 29.71 in Calm   2.0 mph 31% 0.00 in 0.0 W/m2
00:05 72.3 °F 40.8 °F 29.71 in Calm   2.0 mph 32% 0.00 in 0.0 W/m2
00:10 72.1 °F 40.6 °F 29.71 in East 0.9 mph 4.0 mph 32% 0.00 in 0.0 W/m2
00:15 72.0 °F 40.5 °F 29.71 in Calm   3.0 mph 32% 0.00 in 0.0 W/m2
00:21 71.8 °F 40.3 °F 29.71 in North 0.9 mph 2.0 mph 32% 0.00 in 0.0 W/m2
00:26 71.6 °F 41.0 °F 29.71 in NW 2.0 mph 2.0 mph 33% 0.00 in 0.0 W/m2
00:31 71.4 °F 40.8 °F 29.71 in Calm   2.0 mph 33% 0.00 in 0.0 W/m2
00:36 71.4 °F 41.5 °F 29.71 in NW 2.0 mph 2.0 mph 34% 0.00 in 0.0 W/m2
00:41 71.4 °F 41.5 °F 29.71 in Calm   3.0 mph 34% 0.00 in 0.0 W/m2
00:46 71.2 °F 42.3 °F 29.71 in Calm   2.0 mph 35% 0.00 in 0.0 W/m2
00:51 71.2 °F 42.3 °F 29.71 in Calm   3.0 mph 35% 0.00 in 0.0 W/m2
00:56 71.1 °F 42.1 °F 29.71 in WNW 0.9 mph 1.0 mph 35% 0.00 in 0.0 W/m2
01:02 71.1 °F 42.1 °F 29.71 in Calm     35% 0.00 in 0.0 W/m2
01:07 70.9 °F 41.9 °F 29.71 in Calm     35% 0.00 in 0.0 W/m2
01:12 70.5 °F 41.5 °F 29.72 in Calm   1.0 mph 35% 0.00 in 0.0 W/m2
01:17 70.3 °F 42.1 °F 29.71 in Calm   1.0 mph 36% 0.00 in 0.0 W/m2
01:22 70.2 °F 41.9 °F 29.71 in Calm     36% 0.00 in 0.0 W/m2
01:27 70.2 °F 42.6 °F 29.70 in Calm     37% 0.00 in 0.0 W/m2
01:32 70.0 °F 42.4 °F 29.70 in Calm     37% 0.00 in 0.0 W/m2
01:37 69.6 °F 42.3 °F 29.70 in Calm   1.0 mph 37% 0.00 in 0.0 W/m2
01:42 69.4 °F 42.8 °F 29.70 in Calm     38% 0.00 in 0.0 W/m2
01:47 69.3 °F 42.6 °F 29.70 in Calm     38% 0.00 in 0.0 W/m2
01:52 69.1 °F 43.2 °F 29.70 in Calm   1.0 mph 39% 0.00 in 0.0 W/m2
01:57 68.7 °F 42.8 °F 29.69 in Calm   1.0 mph 39% 0.00 in 0.0 W/m2
02:02 68.5 °F 42.6 °F 29.70 in Calm     39% 0.00 in 0.0 W/m2
02:07 68.4 °F 43.2 °F 29.70 in Calm     40% 0.00 in 0.0 W/m2
02:13 68.2 °F 43.0 °F 29.69 in Calm   1.0 mph 40% 0.00 in 0.0 W/m2
02:18 67.8 °F 42.6 °F 29.69 in Calm     40% 0.00 in 0.0 W/m2
02:23 67.5 °F 42.3 °F 29.68 in Calm     40% 0.00 in 0.0 W/m2
02:28 67.1 °F 41.9 °F 29.68 in Calm   1.0 mph 40% 0.00 in 0.0 W/m2
02:33 66.9 °F 42.4 °F 29.68 in Calm     41% 0.00 in 0.0 W/m2
02:38 66.6 °F 42.1 °F 29.68 in SSE 0.9 mph 3.0 mph 41% 0.00 in 0.0 W/m2
02:43 66.6 °F 42.1 °F 29.68 in Calm   2.0 mph 41% 0.00 in 0.0 W/m2
02:48 66.6 °F 42.1 °F 29.68 in Calm     41% 0.00 in 0.0 W/m2
02:54 66.6 °F 42.1 °F 29.67 in Calm   1.0 mph 41% 0.00 in 0.0 W/m2
02:59 66.4 °F 42.6 °F 29.67 in Calm   2.0 mph 42% 0.00 in 0.0 W/m2
03:05 66.2 °F 42.4 °F 29.67 in Calm   1.0 mph 42% 0.00 in 0.0 W/m2
03:10 66.0 °F 42.3 °F 29.67 in Calm   1.0 mph 42% 0.00 in 0.0 W/m2
03:15 66.0 °F 42.8 °F 29.67 in Calm     43% 0.00 in 0.0 W/m2
03:20 65.8 °F 42.8 °F 29.66 in Calm     43% 0.00 in 0.0 W/m2
03:25 65.8 °F 42.8 °F 29.66 in Calm     43% 0.00 in 0.0 W/m2
03:30 65.7 °F 42.6 °F 29.66 in Calm     43% 0.00 in 0.0 W/m2
03:36 65.7 °F 42.6 °F 29.66 in SE 2.0 mph 2.0 mph 43% 0.00 in 0.0 W/m2
03:41 65.7 °F 42.6 °F 29.65 in Calm   2.0 mph 43% 0.00 in 0.0 W/m2
03:47 65.7 °F 42.6 °F 29.65 in SSE 2.0 mph 2.0 mph 43% 0.00 in 0.0 W/m2
03:52 65.8 °F 42.8 °F 29.65 in Calm     43% 0.00 in 0.0 W/m2
03:57 65.8 °F 42.8 °F 29.65 in Calm     43% 0.00 in 0.0 W/m2
04:02 65.8 °F 42.8 °F 29.66 in Calm     43% 0.00 in 0.0 W/m2
04:07 65.8 °F 42.8 °F 29.65 in Calm     43% 0.00 in 0.0 W/m2
04:12 65.8 °F 42.8 °F 29.65 in Calm   4.0 mph 43% 0.00 in 0.0 W/m2
04:17 65.7 °F 42.6 °F 29.65 in Calm     43% 0.00 in 0.0 W/m2
04:23 65.7 °F 43.2 °F 29.65 in SE 0.9 mph 1.0 mph 44% 0.00 in 0.0 W/m2
04:28 65.7 °F 43.2 °F 29.65 in Calm   3.0 mph 44% 0.00 in 0.0 W/m2
04:33 65.5 °F 43.5 °F 29.64 in Calm   1.0 mph 45% 0.00 in 0.0 W/m2
04:38 65.5 °F 43.5 °F 29.65 in Calm     45% 0.00 in 0.0 W/m2
04:43 65.5 °F 43.5 °F 29.65 in Calm   1.0 mph 45% 0.00 in 0.0 W/m2
04:48 65.3 °F 43.3 °F 29.65 in Calm     45% 0.00 in 0.0 W/m2
04:53 65.1 °F 43.9 °F 29.65 in Calm     46% 0.00 in 0.0 W/m2
04:58 65.1 °F 43.9 °F 29.65 in Calm     46% 0.00 in 0.0 W/m2
05:03 64.9 °F 43.7 °F 29.65 in Calm     46% 0.00 in 0.0 W/m2
05:08 64.8 °F 43.5 °F 29.65 in Calm   1.0 mph 46% 0.00 in 0.0 W/m2
05:13 64.8 °F 43.5 °F 29.65 in SE 0.9 mph 2.0 mph 46% 0.00 in 0.0 W/m2
05:19 64.8 °F 43.5 °F 29.65 in SE 0.9 mph 3.0 mph 46% 0.00 in 0.0 W/m2
05:24 64.8 °F 43.5 °F 29.65 in Calm   1.0 mph 46% 0.00 in 0.0 W/m2
05:29 64.8 °F 43.5 °F 29.65 in Calm   2.0 mph 46% 0.00 in 0.0 W/m2
05:34 64.8 °F 43.5 °F 29.65 in SE 0.9 mph 3.0 mph 46% 0.00 in 0.0 W/m2
05:39 64.8 °F 43.5 °F 29.65 in Calm   1.0 mph 46% 0.00 in 0.0 W/m2
05:44 64.8 °F 44.1 °F 29.65 in Calm     47% 0.00 in 0.0 W/m2
05:49 64.8 °F 44.1 °F 29.65 in Calm     47% 0.00 in 0.0 W/m2
05:54 64.9 °F 44.2 °F 29.66 in SE 0.9 mph 1.0 mph 47% 0.00 in 0.0 W/m2
06:00 64.9 °F 44.2 °F 29.66 in Calm   2.0 mph 47% 0.00 in 0.0 W/m2
06:05 64.9 °F 44.2 °F 29.66 in Calm   1.0 mph 47% 0.00 in 0.0 W/m2
06:10 64.8 °F 44.1 °F 29.66 in Calm   2.0 mph 47% 0.00 in 0.0 W/m2
06:15 64.6 °F 44.4 °F 29.66 in East 0.9 mph 2.0 mph 48% 0.00 in 0.0 W/m2
06:20 64.6 °F 44.4 °F 29.66 in Calm     48% 0.00 in 0.0 W/m2
06:25 64.4 °F 44.8 °F 29.66 in Calm   1.0 mph 49% 0.00 in 0.0 W/m2
06:30 64.2 °F 44.6 °F 29.66 in Calm   1.0 mph 49% 0.00 in 0.0 W/m2
06:35 64.2 °F 44.6 °F 29.67 in Calm   3.0 mph 49% 0.00 in 7.0 W/m2
06:40 64.2 °F 45.1 °F 29.67 in Calm     50% 0.00 in 11.0 W/m2
06:46 64.2 °F 45.1 °F 29.67 in Calm     50% 0.00 in 14.0 W/m2
06:51 64.2 °F 45.7 °F 29.67 in NE 0.9 mph 1.0 mph 51% 0.00 in 26.0 W/m2
06:56 64.4 °F 45.9 °F 29.67 in Calm   1.0 mph 51% 0.00 in 28.0 W/m2
07:01 64.6 °F 46.6 °F 29.67 in East 2.0 mph 2.0 mph 52% 0.00 in 32.0 W/m2
07:06 64.8 °F 46.2 °F 29.68 in ESE 0.9 mph 2.0 mph 51% 0.00 in 32.0 W/m2
07:11 64.9 °F 46.4 °F 29.68 in Calm   1.0 mph 51% 0.00 in 40.0 W/m2
07:16 65.1 °F 46.6 °F 29.68 in Calm     51% 0.00 in 49.0 W/m2
07:21 65.5 °F 47.5 °F 29.68 in Calm   1.0 mph 52% 0.00 in 54.0 W/m2
07:27 65.7 °F 47.5 °F 29.68 in Calm   1.0 mph 52% 0.00 in 65.0 W/m2
07:32 66.0 °F 47.8 °F 29.68 in Calm   1.0 mph 52% 0.00 in 67.0 W/m2
07:37 66.4 °F 48.7 °F 29.68 in Calm   1.0 mph 53% 0.00 in 72.0 W/m2
07:42 66.7 °F 48.6 °F 29.68 in Calm   1.0 mph 52% 0.00 in 81.0 W/m2
07:47 66.9 °F 48.7 °F 29.68 in Calm   2.0 mph 52% 0.00 in 88.0 W/m2
07:52 67.5 °F 48.7 °F 29.68 in Calm   2.0 mph 51% 0.00 in 104.0 W/m2
07:57 67.8 °F 49.1 °F 29.68 in Calm     51% 0.00 in 118.0 W/m2
08:02 68.2 °F 49.3 °F 29.68 in Calm     51% 0.00 in 135.0 W/m2
08:08 68.7 °F 49.8 °F 29.68 in Calm     51% 0.00 in 141.0 W/m2
08:13 69.1 °F 49.1 °F 29.68 in Calm     49% 0.00 in 165.0 W/m2
08:18 69.4 °F 48.9 °F 29.68 in Calm     48% 0.00 in 162.0 W/m2
08:23 70.0 °F 48.7 °F 29.68 in Calm     47% 0.00 in 271.0 W/m2
08:28 70.7 °F 47.1 °F 29.68 in Calm     43% 0.00 in 454.0 W/m2
08:33 72.0 °F 45.0 °F 29.67 in Calm   1.0 mph 38% 0.00 in 461.0 W/m2
08:38 73.0 °F 45.1 °F 29.67 in SSW 4.9 mph 7.0 mph 37% 0.00 in 476.0 W/m2
08:43 74.5 °F 41.9 °F 29.67 in SSW 0.9 mph 2.0 mph 31% 0.00 in 496.0 W/m2
08:49 75.6 °F 42.8 °F 29.67 in SSE 6.9 mph 7.0 mph 31% 0.00 in 526.0 W/m2
08:54 76.6 °F 42.1 °F 29.67 in WSW 2.0 mph 6.0 mph 29% 0.00 in 545.0 W/m2
08:59 77.5 °F 41.9 °F 29.68 in South 2.9 mph 4.0 mph 28% 0.00 in 573.0 W/m2
09:04 78.4 °F 41.7 °F 29.68 in WSW 6.9 mph 8.0 mph 27% 0.00 in 596.0 W/m2
09:09 79.5 °F 42.6 °F 29.68 in SSW 0.9 mph 6.0 mph 27% 0.00 in 615.0 W/m2
09:14 80.2 °F 42.3 °F 29.68 in SW 4.0 mph 4.0 mph 26% 0.00 in 617.0 W/m2
09:19 80.4 °F 41.4 °F 29.68 in WSW 0.9 mph 2.0 mph 25% 0.00 in 640.0 W/m2
09:24 80.8 °F 42.6 °F 29.68 in Calm   5.0 mph 26% 0.00 in 654.0 W/m2
09:29 81.1 °F 43.0 °F 29.68 in SSE 8.1 mph 8.1 mph 26% 0.00 in 680.0 W/m2
09:35 81.7 °F 43.5 °F 29.68 in South 6.0 mph 8.0 mph 26% 0.00 in 708.0 W/m2
09:40 82.0 °F 42.8 °F 29.68 in SE 2.0 mph 4.0 mph 25% 0.00 in 721.0 W/m2
09:45 82.4 °F 41.9 °F 29.68 in Calm   4.0 mph 24% 0.00 in 728.0 W/m2
09:50 82.8 °F 43.3 °F 29.68 in Calm   5.0 mph 25% 0.00 in 731.0 W/m2
09:55 83.1 °F 42.6 °F 29.68 in SW 0.9 mph 2.0 mph 24% 0.00 in 759.0 W/m2
10:00 83.3 °F 43.9 °F 29.68 in SW 0.9 mph 5.0 mph 25% 0.00 in 789.0 W/m2
10:06 83.5 °F 43.0 °F 29.68 in SW 2.0 mph 5.0 mph 24% 0.00 in 882.0 W/m2
10:11 83.5 °F 41.7 °F 29.68 in Calm   1.0 mph 23% 0.00 in 893.0 W/m2
10:16 83.7 °F 43.0 °F 29.68 in South 4.0 mph 8.0 mph 24% 0.00 in 694.0 W/m2
10:21 83.8 °F 42.1 °F 29.68 in SW 2.0 mph 5.0 mph 23% 0.00 in 805.0 W/m2
10:27 84.0 °F 42.3 °F 29.68 in Calm   3.0 mph 23% 0.00 in 475.0 W/m2
10:32 84.4 °F 42.6 °F 29.68 in NNW 9.0 mph 9.0 mph 23% 0.00 in 329.0 W/m2
10:37 84.9 °F 43.0 °F 29.68 in North 2.9 mph 7.0 mph 23% 0.00 in 396.0 W/m2
10:42 85.1 °F 43.2 °F 29.68 in North 2.0 mph 6.0 mph 23% 0.00 in 309.0 W/m2
10:47 84.6 °F 42.6 °F 29.68 in NNE 6.9 mph 7.0 mph 23% 0.00 in 311.0 W/m2
10:52 83.8 °F 43.2 °F 29.68 in NE 4.0 mph 5.0 mph 24% 0.00 in 353.0 W/m2
10:57 83.7 °F 43.0 °F 29.68 in Calm   2.0 mph 24% 0.00 in 396.0 W/m2
11:02 83.8 °F 43.2 °F 29.68 in NE 2.9 mph 6.0 mph 24% 0.00 in 345.0 W/m2
11:07 84.0 °F 43.3 °F 29.67 in NE 2.0 mph 5.0 mph 24% 0.00 in 348.0 W/m2
11:13 84.2 °F 43.5 °F 29.68 in Calm   2.0 mph 24% 0.00 in 327.0 W/m2
11:18 84.4 °F 43.7 °F 29.67 in NE 2.9 mph 5.0 mph 24% 0.00 in 323.0 W/m2
11:23 84.4 °F 42.6 °F 29.67 in Calm   5.0 mph 23% 0.00 in 309.0 W/m2
11:28 84.4 °F 42.6 °F 29.67 in Calm   5.0 mph 23% 0.00 in 334.0 W/m2
11:33 84.4 °F 42.6 °F 29.67 in NNW 6.9 mph 10.0 mph 23% 0.00 in 325.0 W/m2
11:38 84.4 °F 42.6 °F 29.67 in North 2.9 mph 10.0 mph 23% 0.00 in 455.0 W/m2
11:43 84.6 °F 42.6 °F 29.67 in East 2.0 mph 6.0 mph 23% 0.00 in 476.0 W/m2
11:48 85.3 °F 44.4 °F 29.67 in Calm   4.0 mph 24% 0.00 in 1429.0 W/m2
11:53 86.4 °F 43.0 °F 29.67 in East 0.9 mph 9.0 mph 22% 0.00 in 700.0 W/m2
11:59 86.7 °F 42.1 °F 29.67 in NE 2.9 mph 11.0 mph 21% 0.00 in 536.0 W/m2
12:04 86.9 °F 43.5 °F 29.67 in NNE 6.0 mph 6.0 mph 22% 0.00 in 432.0 W/m2
12:09 86.9 °F 43.5 °F 29.67 in Calm   7.0 mph 22% 0.00 in 476.0 W/m2
12:14 86.9 °F 42.3 °F 29.67 in North 0.9 mph 12.0 mph 21% 0.00 in 520.0 W/m2
12:19 87.1 °F 43.7 °F 29.67 in North 4.9 mph 10.0 mph 22% 0.00 in 1348.0 W/m2
12:24 87.6 °F 42.8 °F 29.66 in East 2.9 mph 8.0 mph 21% 0.00 in 519.0 W/m2
12:29 87.4 °F 42.8 °F 29.66 in South 2.0 mph 8.0 mph 21% 0.00 in 397.0 W/m2
12:34 87.3 °F 42.6 °F 29.66 in Calm   3.0 mph 21% 0.00 in 390.0 W/m2
12:39 87.3 °F 43.7 °F 29.66 in North 4.0 mph 6.0 mph 22% 0.00 in 401.0 W/m2
12:45 87.3 °F 43.7 °F 29.66 in North 2.9 mph 6.0 mph 22% 0.00 in 401.0 W/m2
12:51 87.3 °F 43.7 °F 29.65 in NW 2.9 mph 3.0 mph 22% 0.00 in 429.0 W/m2
12:56 87.3 °F 43.7 °F 29.65 in Calm   10.0 mph 22% 0.00 in 429.0 W/m2
13:01 87.3 °F 43.7 °F 29.65 in NNW 2.0 mph 7.0 mph 22% 0.00 in 403.0 W/m2
13:06 87.3 °F 43.7 °F 29.65 in WNW 0.9 mph 5.0 mph 22% 0.00 in 383.0 W/m2
13:11 87.1 °F 43.7 °F 29.65 in Calm   7.0 mph 22% 0.00 in 378.0 W/m2
13:17 86.7 °F 44.4 °F 29.65 in Calm   4.0 mph 23% 0.00 in 439.0 W/m2
13:22 87.1 °F 43.7 °F 29.64 in Calm   6.0 mph 22% 0.00 in 561.0 W/m2
13:27 87.4 °F 43.9 °F 29.64 in Calm   1.0 mph 22% 0.00 in 596.0 W/m2
13:32 87.6 °F 44.1 °F 29.64 in SE 0.9 mph 2.0 mph 22% 0.00 in 492.0 W/m2
13:38 88.3 °F 44.6 °F 29.63 in NW 0.9 mph 6.0 mph 22% 0.00 in 517.0 W/m2
13:43 89.1 °F 44.1 °F 29.63 in Calm   4.0 mph 21% 0.00 in 452.0 W/m2
13:48 88.7 °F 43.7 °F 29.63 in SW 4.0 mph 8.0 mph 21% 0.00 in 432.0 W/m2
13:53 87.8 °F 43.0 °F 29.63 in Calm   2.0 mph 21% 0.00 in 348.0 W/m2
13:58 87.4 °F 45.1 °F 29.63 in Calm   1.0 mph 23% 0.00 in 353.0 W/m2
14:03 87.4 °F 43.9 °F 29.62 in Calm   6.0 mph 22% 0.00 in 362.0 W/m2
14:08 87.4 °F 43.9 °F 29.62 in North 4.9 mph 6.0 mph 22% 0.00 in 309.0 W/m2
14:13 87.4 °F 42.8 °F 29.62 in NNE 2.9 mph 10.0 mph 21% 0.00 in 406.0 W/m2
14:18 87.6 °F 44.1 °F 29.62 in North 2.9 mph 3.0 mph 22% 0.00 in 1329.0 W/m2
14:23 88.3 °F 43.5 °F 29.62 in WSW 2.0 mph 3.0 mph 21% 0.00 in 1215.0 W/m2
14:29 87.8 °F 43.0 °F 29.62 in Calm   4.0 mph 21% 0.00 in 526.0 W/m2
14:34 87.4 °F 43.9 °F 29.62 in South 4.0 mph 6.0 mph 22% 0.00 in 543.0 W/m2
14:39 87.6 °F 44.1 °F 29.61 in West 0.9 mph 3.0 mph 22% 0.00 in 513.0 W/m2
14:44 88.0 °F 44.4 °F 29.62 in NW 2.0 mph 3.0 mph 22% 0.00 in 322.0 W/m2
14:49 88.2 °F 44.6 °F 29.61 in ENE 2.0 mph 7.0 mph 22% 0.00 in 318.0 W/m2
14:54 88.2 °F 43.3 °F 29.61 in Calm   7.0 mph 21% 0.00 in 434.0 W/m2
14:59 88.3 °F 43.5 °F 29.61 in NNE 0.9 mph 5.0 mph 21% 0.00 in 497.0 W/m2
15:04 89.2 °F 44.2 °F 29.60 in NE 4.9 mph 5.0 mph 21% 0.00 in 1267.0 W/m2
15:09 90.3 °F 43.9 °F 29.60 in North 0.9 mph 3.0 mph 20% 0.00 in 1125.0 W/m2
15:15 91.0 °F 44.4 °F 29.60 in WNW 0.9 mph 5.0 mph 20% 0.00 in 406.0 W/m2
15:20 91.2 °F 44.6 °F 29.60 in Calm   3.0 mph 20% 0.00 in 418.0 W/m2
15:25 91.0 °F 44.4 °F 29.59 in Calm   3.0 mph 20% 0.00 in 568.0 W/m2
15:30 91.0 °F 44.4 °F 29.59 in West 4.9 mph 5.0 mph 20% 0.00 in 380.0 W/m2
15:35 90.9 °F 44.2 °F 29.59 in Calm   2.0 mph 20% 0.00 in 441.0 W/m2
15:40 90.9 °F 44.2 °F 29.59 in Calm   2.0 mph 20% 0.00 in 476.0 W/m2
15:45 90.9 °F 44.2 °F 29.59 in Calm   1.0 mph 20% 0.00 in 415.0 W/m2
15:50 90.7 °F 44.1 °F 29.59 in WSW 2.0 mph 8.0 mph 20% 0.00 in 566.0 W/m2
15:56 90.3 °F 43.9 °F 29.58 in SW 2.0 mph 5.0 mph 20% 0.00 in 420.0 W/m2
16:01 90.3 °F 45.1 °F 29.58 in WNW 2.0 mph 3.0 mph 21% 0.00 in 417.0 W/m2
16:06 90.1 °F 43.7 °F 29.58 in WSW 2.9 mph 4.0 mph 20% 0.00 in 329.0 W/m2
16:11 89.2 °F 44.2 °F 29.58 in WSW 0.9 mph 4.0 mph 21% 0.00 in 320.0 W/m2
16:16 88.9 °F 43.9 °F 29.58 in WSW 4.0 mph 6.0 mph 21% 0.00 in 976.0 W/m2
16:21 89.4 °F 44.4 °F 29.58 in West 2.9 mph 6.0 mph 21% 0.00 in 640.0 W/m2
16:26 89.8 °F 44.6 °F 29.57 in SSW 2.9 mph 3.0 mph 21% 0.00 in 617.0 W/m2
16:31 90.0 °F 43.5 °F 29.57 in NW 2.9 mph 4.0 mph 20% 0.00 in 288.0 W/m2
16:37 90.1 °F 43.7 °F 29.57 in North 4.0 mph 9.0 mph 20% 0.00 in 246.0 W/m2
16:42 89.8 °F 43.3 °F 29.57 in NNW 0.9 mph 4.0 mph 20% 0.00 in 234.0 W/m2
16:47 89.6 °F 44.4 °F 29.57 in Calm   6.0 mph 21% 0.00 in 250.0 W/m2
16:52 89.4 °F 44.4 °F 29.57 in WSW 2.0 mph 6.0 mph 21% 0.00 in 487.0 W/m2
16:57 89.2 °F 44.2 °F 29.56 in Calm   2.0 mph 21% 0.00 in 278.0 W/m2
17:02 89.8 °F 43.3 °F 29.56 in NW 0.9 mph 7.0 mph 20% 0.00 in 686.0 W/m2
17:07 90.7 °F 44.1 °F 29.56 in Calm   7.0 mph 20% 0.00 in 642.0 W/m2
17:12 90.9 °F 44.2 °F 29.56 in Calm   9.0 mph 20% 0.00 in 606.0 W/m2
17:17 91.6 °F 44.8 °F 29.56 in WSW 0.9 mph 5.0 mph 20% 0.00 in 591.0 W/m2
17:22 92.3 °F 44.1 °F 29.56 in WNW 0.9 mph 4.0 mph 19% 0.00 in 589.0 W/m2
17:28 92.8 °F 44.6 °F 29.56 in NNW 2.0 mph 4.0 mph 19% 0.00 in 545.0 W/m2
17:33 93.0 °F 43.3 °F 29.56 in NW 0.9 mph 7.0 mph 18% 0.00 in 512.0 W/m2
17:38 92.8 °F 44.6 °F 29.56 in WNW 2.0 mph 5.0 mph 19% 0.00 in 476.0 W/m2
17:43 92.3 °F 44.1 °F 29.56 in SW 0.9 mph 7.0 mph 19% 0.00 in 137.0 W/m2
17:48 91.0 °F 43.0 °F 29.56 in WSW 4.0 mph 9.0 mph 19% 0.00 in 445.0 W/m2
17:53 90.3 °F 43.9 °F 29.56 in Calm   3.0 mph 20% 0.00 in 93.0 W/m2
17:58 89.8 °F 43.3 °F 29.56 in Calm   5.0 mph 20% 0.00 in 84.0 W/m2
18:03 89.1 °F 42.8 °F 29.56 in North 2.0 mph 2.0 mph 20% 0.00 in 98.0 W/m2
18:08 88.7 °F 43.7 °F 29.56 in West 0.9 mph 3.0 mph 21% 0.00 in 211.0 W/m2
18:13 88.9 °F 42.6 °F 29.56 in Calm   7.0 mph 20% 0.00 in 169.0 W/m2
18:18 88.9 °F 42.6 °F 29.57 in West 2.9 mph 7.0 mph 20% 0.00 in 141.0 W/m2
18:24 88.7 °F 42.4 °F 29.57 in NNW 2.0 mph 3.0 mph 20% 0.00 in 251.0 W/m2
18:29 89.1 °F 42.8 °F 29.57 in WNW 2.9 mph 4.0 mph 20% 0.00 in 102.0 W/m2
18:34 89.1 °F 42.8 °F 29.57 in West 2.0 mph 3.0 mph 20% 0.00 in 225.0 W/m2
18:39 89.2 °F 43.0 °F 29.57 in Calm   1.0 mph 20% 0.00 in 199.0 W/m2
18:45 89.4 °F 43.0 °F 29.57 in WSW 0.9 mph 5.0 mph 20% 0.00 in 163.0 W/m2
18:50 89.2 °F 43.0 °F 29.57 in Calm   1.0 mph 20% 0.00 in 132.0 W/m2
18:55 88.9 °F 41.4 °F 29.57 in WSW 2.0 mph 8.0 mph 19% 0.00 in 63.0 W/m2
19:00 88.3 °F 40.8 °F 29.58 in WSW 2.9 mph 4.0 mph 19% 0.00 in 53.0 W/m2
19:05 87.4 °F 37.2 °F 29.58 in West 2.9 mph 10.0 mph 17% 0.00 in 39.0 W/m2
19:10 86.7 °F 36.7 °F 29.58 in WSW 2.0 mph 9.0 mph 17% 0.00 in 32.0 W/m2
19:16 86.2 °F 37.8 °F 29.58 in WSW 8.1 mph 9.0 mph 18% 0.00 in 30.0 W/m2
19:21 85.6 °F 37.2 °F 29.58 in West 2.0 mph 9.0 mph 18% 0.00 in 28.0 W/m2
19:26 85.5 °F 37.0 °F 29.58 in Calm   6.0 mph 18% 0.00 in 23.0 W/m2
19:31 85.1 °F 36.9 °F 29.59 in SSW 6.0 mph 12.0 mph 18% 0.00 in 19.0 W/m2
19:36 84.6 °F 36.3 °F 29.59 in SW 6.9 mph 11.0 mph 18% 0.00 in 16.0 W/m2
19:41 83.8 °F 37.2 °F 29.60 in West 8.1 mph 14.0 mph 19% 0.00 in 9.0 W/m2
19:46 82.8 °F 37.6 °F 29.60 in WSW 11.0 mph 11.0 mph 20% 0.00 in 0.0 W/m2
19:51 81.9 °F 39.2 °F 29.60 in WSW 2.0 mph 8.0 mph 22% 0.00 in 0.0 W/m2
19:56 81.3 °F 38.8 °F 29.61 in South 4.0 mph 7.0 mph 22% 0.00 in 0.0 W/m2
20:01 81.0 °F 38.5 °F 29.61 in SW 6.9 mph 10.0 mph 22% 0.00 in 0.0 W/m2
20:07 80.4 °F 39.2 °F 29.61 in SSW 6.9 mph 8.0 mph 23% 0.00 in 0.0 W/m2
20:12 80.1 °F 38.8 °F 29.61 in SSW 4.0 mph 8.0 mph 23% 0.00 in 0.0 W/m2
20:17 79.5 °F 38.5 °F 29.62 in SSE 2.9 mph 10.0 mph 23% 0.00 in 0.0 W/m2
20:22 79.3 °F 39.4 °F 29.63 in SSW 2.0 mph 9.0 mph 24% 0.00 in 0.0 W/m2
20:27 79.0 °F 39.2 °F 29.63 in SW 2.9 mph 9.0 mph 24% 0.00 in 0.0 W/m2
20:32 78.6 °F 38.8 °F 29.63 in SW 4.0 mph 6.0 mph 24% 0.00 in 0.0 W/m2
20:37 78.4 °F 38.7 °F 29.64 in South 2.0 mph 6.0 mph 24% 0.00 in 0.0 W/m2
20:42 78.1 °F 38.3 °F 29.64 in SSW 0.9 mph 8.0 mph 24% 0.00 in 0.0 W/m2
20:47 77.7 °F 38.1 °F 29.64 in SSW 4.0 mph 9.0 mph 24% 0.00 in 0.0 W/m2
20:52 77.5 °F 37.9 °F 29.64 in SSE 8.1 mph 11.0 mph 24% 0.00 in 0.0 W/m2
20:58 77.4 °F 37.8 °F 29.64 in Calm   3.0 mph 24% 0.00 in 0.0 W/m2
21:03 77.2 °F 37.6 °F 29.64 in WSW 2.0 mph 7.0 mph 24% 0.00 in 0.0 W/m2
21:08 77.0 °F 37.4 °F 29.65 in SW 2.0 mph 7.0 mph 24% 0.00 in 0.0 W/m2
21:13 76.6 °F 37.2 °F 29.65 in Calm   1.0 mph 24% 0.00 in 0.0 W/m2
21:19 76.5 °F 37.9 °F 29.65 in West 0.9 mph 3.0 mph 25% 0.00 in 0.0 W/m2
21:24 76.1 °F 37.8 °F 29.65 in WSW 0.9 mph 1.0 mph 25% 0.00 in 0.0 W/m2
21:29 75.9 °F 37.6 °F 29.65 in West 2.9 mph 3.0 mph 25% 0.00 in 0.0 W/m2
21:34 75.6 °F 37.2 °F 29.65 in Calm   6.0 mph 25% 0.00 in 0.0 W/m2
21:39 75.6 °F 37.2 °F 29.65 in Calm   7.0 mph 25% 0.00 in 0.0 W/m2
21:44 75.6 °F 38.3 °F 29.66 in Calm   1.0 mph 26% 0.00 in 0.0 W/m2
21:50 75.4 °F 38.1 °F 29.66 in Calm     26% 0.00 in 0.0 W/m2
21:55 75.4 °F 38.1 °F 29.66 in Calm   1.0 mph 26% 0.00 in 0.0 W/m2
22:00 75.0 °F 37.8 °F 29.66 in Calm     26% 0.00 in 0.0 W/m2
22:05 74.8 °F 38.7 °F 29.66 in Calm     27% 0.00 in 0.0 W/m2
22:10 74.7 °F 38.5 °F 29.66 in Calm   1.0 mph 27% 0.00 in 0.0 W/m2
22:15 74.5 °F 38.3 °F 29.66 in Calm   2.0 mph 27% 0.00 in 0.0 W/m2
22:20 74.1 °F 37.9 °F 29.66 in SW 2.0 mph 3.0 mph 27% 0.00 in 0.0 W/m2
22:25 74.1 °F 37.9 °F 29.66 in Calm     27% 0.00 in 0.0 W/m2
22:31 73.9 °F 38.8 °F 29.66 in Calm     28% 0.00 in 0.0 W/m2
22:37 73.8 °F 38.7 °F 29.66 in Calm   1.0 mph 28% 0.00 in 0.0 W/m2
22:42 73.6 °F 38.5 °F 29.66 in Calm     28% 0.00 in 0.0 W/m2
22:47 73.2 °F 38.1 °F 29.67 in Calm     28% 0.00 in 0.0 W/m2
22:52 73.0 °F 38.8 °F 29.67 in Calm     29% 0.00 in 0.0 W/m2
22:59 72.5 °F 39.4 °F 29.67 in Calm     30% 0.00 in 0.0 W/m2
23:05 72.1 °F 39.0 °F 29.67 in Calm     30% 0.00 in 0.0 W/m2
23:10 72.0 °F 38.8 °F 29.67 in Calm     30% 0.00 in 0.0 W/m2
23:16 71.6 °F 38.5 °F 29.67 in Calm     30% 0.00 in 0.0 W/m2
23:21 71.2 °F 38.3 °F 29.67 in Calm   2.0 mph 30% 0.00 in 0.0 W/m2
23:26 71.2 °F 38.3 °F 29.68 in SE 0.9 mph 3.0 mph 30% 0.00 in 0.0 W/m2
23:31 71.2 °F 38.3 °F 29.68 in SE 0.9 mph 3.0 mph 30% 0.00 in 0.0 W/m2
23:36 71.2 °F 38.3 °F 29.68 in SSE 2.0 mph 3.0 mph 30% 0.00 in 0.0 W/m2
23:41 71.2 °F 38.3 °F 29.68 in SE 0.9 mph 3.0 mph 30% 0.00 in 0.0 W/m2
23:46 71.2 °F 38.3 °F 29.68 in Calm   3.0 mph 30% 0.00 in 0.0 W/m2
23:51 71.1 °F 38.1 °F 29.68 in Calm   1.0 mph 30% 0.00 in 0.0 W/m2
23:57 71.1 °F 38.1 °F 29.67 in Calm   1.0 mph 30% 0.00 in 0.0 W/m2
Olympia, Windhoek, Namibia
Compliments of Weather Underground - 3.25 mb